EDW230 LSZH-GCLA

Flight info

Callsign EDW230
Flight time N/A
Altitude 33000
Route VEBIT T50 ROTOS Z669 ULMES DCT VADAR DCT NINTU DCT MEBAK DCT REPSI/N0460F350 DCT LERGA DCT MINSO DCT NARAK DCT AGN DCT LATEK N995 PPN N976 NEA L14 ADINO DCT ELVAR DCT GAIOS DCT BEXAL UN866 KONBA
Aircraft A320/M-SDE3FGHIRWY/LB1

Departure

Time 2026-05-06 08:57
Airport Zürich Airport (LSZH)

Arrival

Time N/A
Airport La Palma Airport (GCLA)
Time Latitude Longitude Altitude Speed Heading
2026-05-06 08:31 47.45440 8.55569 1409 ft 0 kts 186°
2026-05-06 08:42 47.45441 8.55569 1406 ft 0 kts 186°
2026-05-06 08:48 47.45444 8.55570 1406 ft 3 kts 187°
2026-05-06 08:48 47.45471 8.55577 1406 ft 4 kts 188°
2026-05-06 08:48 47.45493 8.55576 1407 ft 2 kts 161°
2026-05-06 08:48 47.45515 8.55559 1409 ft 4 kts 129°
2026-05-06 08:49 47.45524 8.55531 1410 ft 1 kts 96°
2026-05-06 08:49 47.45524 8.55530 1410 ft 0 kts 96°
2026-05-06 08:51 47.45522 8.55555 1414 ft 5 kts 96°
2026-05-06 08:52 47.45516 8.55632 1407 ft 10 kts 96°
2026-05-06 08:52 47.45508 8.55743 1409 ft 10 kts 96°
2026-05-06 08:52 47.45501 8.55834 1411 ft 9 kts 96°
2026-05-06 08:52 47.45494 8.55955 1407 ft 13 kts 95°
2026-05-06 08:53 47.45486 8.56074 1409 ft 10 kts 96°
2026-05-06 08:53 47.45479 8.56179 1407 ft 12 kts 92°
2026-05-06 08:53 47.45516 8.56248 1411 ft 7 kts 14°
2026-05-06 08:53 47.45574 8.56258 1413 ft 9 kts
2026-05-06 08:54 47.45608 8.56297 1413 ft 6 kts 68°
2026-05-06 08:54 47.45601 8.56381 1416 ft 12 kts 99°
2026-05-06 08:54 47.45590 8.56540 1416 ft 17 kts 96°
2026-05-06 08:54 47.45579 8.56701 1418 ft 14 kts 96°
2026-05-06 08:55 47.45570 8.56823 1420 ft 10 kts 96°
2026-05-06 08:55 47.45563 8.56930 1420 ft 12 kts 96°
2026-05-06 08:55 47.45590 8.57013 1423 ft 6 kts 31°
2026-05-06 08:55 47.45620 8.57023 1424 ft 4 kts
2026-05-06 08:56 47.45653 8.57026 1425 ft 4 kts 359°
2026-05-06 08:56 47.45663 8.57005 1424 ft 2 kts 273°
2026-05-06 08:56 47.45664 8.56998 1424 ft 0 kts 277°
2026-05-06 08:56 47.45686 8.56680 1418 ft 70 kts 276°
2026-05-06 08:57 47.45761 8.55621 1404 ft 134 kts 276°
2026-05-06 08:57 47.45874 8.54014 1539 ft 167 kts 276°
2026-05-06 08:57 47.45993 8.52341 2334 ft 164 kts 276°
2026-05-06 08:57 47.46120 8.50673 3134 ft 161 kts 277°
2026-05-06 08:58 47.46235 8.49019 3661 ft 164 kts 273°
2026-05-06 08:58 47.45951 8.47417 4143 ft 166 kts 233°
2026-05-06 08:58 47.45017 8.46432 4604 ft 168 kts 207°
2026-05-06 08:58 47.44099 8.45318 4853 ft 181 kts 239°
2026-05-06 08:59 47.43419 8.43648 5069 ft 201 kts 237°
2026-05-06 08:59 47.42578 8.41861 5302 ft 221 kts 234°
2026-05-06 08:59 47.41632 8.39945 5593 ft 242 kts 233°
2026-05-06 08:59 47.40586 8.37851 5959 ft 263 kts 233°
2026-05-06 09:00 47.39477 8.35645 6597 ft 270 kts 232°
2026-05-06 09:00 47.38450 8.33304 7312 ft 275 kts 243°
2026-05-06 09:00 47.37610 8.30761 8116 ft 276 kts 242°
2026-05-06 09:00 47.36731 8.28236 8935 ft 278 kts 241°
2026-05-06 09:01 47.35826 8.25698 9731 ft 281 kts 240°
2026-05-06 09:01 47.34894 8.23104 10203 ft 295 kts 241°
2026-05-06 09:01 47.33894 8.20325 10367 ft 318 kts 240°
2026-05-06 09:01 47.32818 8.17341 10507 ft 341 kts 241°
2026-05-06 09:02 47.31679 8.14158 10635 ft 362 kts 241°
2026-05-06 09:02 47.30483 8.10792 10754 ft 379 kts 242°
2026-05-06 09:02 47.29242 8.07298 11072 ft 388 kts 242°
2026-05-06 09:02 47.27984 8.03762 11593 ft 392 kts 242°
2026-05-06 09:03 47.26708 8.00194 12119 ft 395 kts 241°
2026-05-06 09:03 47.25344 7.96658 12652 ft 399 kts 238°
2026-05-06 09:03 47.23884 7.93176 13183 ft 402 kts 237°
2026-05-06 09:03 47.22376 7.89756 13683 ft 405 kts 236°
2026-05-06 09:04 47.20794 7.86247 14166 ft 407 kts 236°
2026-05-06 09:04 47.19243 7.82820 14618 ft 410 kts 236°
2026-05-06 09:04 47.17649 7.79269 15084 ft 412 kts 236°
2026-05-06 09:04 47.16099 7.75780 15520 ft 414 kts 236°
2026-05-06 09:05 47.14530 7.72216 15946 ft 417 kts 236°
2026-05-06 09:05 47.12958 7.68636 16370 ft 419 kts 236°
2026-05-06 09:05 47.11376 7.65029 16791 ft 420 kts 236°
2026-05-06 09:05 47.09791 7.61418 17196 ft 422 kts 235°
2026-05-06 09:06 47.08194 7.57793 17591 ft 424 kts 235°
2026-05-06 09:06 47.06587 7.54163 17965 ft 426 kts 235°
2026-05-06 09:06 47.04967 7.50514 18303 ft 428 kts 235°
2026-05-06 09:06 47.03338 7.46853 18606 ft 429 kts 234°
2026-05-06 09:07 47.01705 7.43187 18927 ft 431 kts 234°
2026-05-06 09:07 47.00063 7.39500 19243 ft 432 kts 234°
2026-05-06 09:07 46.98414 7.35806 19528 ft 435 kts 235°
2026-05-06 09:07 46.96755 7.32093 19796 ft 437 kts 235°
2026-05-06 09:08 46.95037 7.28426 20058 ft 438 kts 231°
2026-05-06 09:08 46.93133 7.24934 20302 ft 440 kts 229°
2026-05-06 09:08 46.91210 7.21430 20535 ft 442 kts 229°
2026-05-06 09:08 46.89281 7.17921 20802 ft 444 kts 229°
2026-05-06 09:09 46.87348 7.14400 21045 ft 445 kts 229°
2026-05-06 09:09 46.85405 7.10868 21287 ft 447 kts 229°
2026-05-06 09:09 46.83451 7.07322 21517 ft 448 kts 229°
2026-05-06 09:09 46.81493 7.03774 21745 ft 450 kts 229°
2026-05-06 09:10 46.79525 7.00214 21974 ft 451 kts 229°
2026-05-06 09:10 46.77550 6.96648 22182 ft 453 kts 229°
2026-05-06 09:10 46.75570 6.93076 22383 ft 454 kts 228°
2026-05-06 09:10 46.73606 6.89533 22573 ft 457 kts 228°
2026-05-06 09:11 46.71599 6.85924 22709 ft 460 kts 228°
2026-05-06 09:11 46.69578 6.82294 22851 ft 463 kts 228°
2026-05-06 09:11 46.67543 6.78643 23005 ft 465 kts 228°
2026-05-06 09:11 46.65561 6.74902 23180 ft 469 kts 233°
2026-05-06 09:12 46.63841 6.70842 23344 ft 472 kts 236°
2026-05-06 09:12 46.62145 6.66746 23482 ft 474 kts 236°
2026-05-06 09:12 46.60442 6.62648 23681 ft 473 kts 236°
2026-05-06 09:12 46.58741 6.58567 23919 ft 471 kts 236°
2026-05-06 09:13 46.57042 6.54508 24185 ft 469 kts 236°
2026-05-06 09:13 46.55350 6.50478 24453 ft 466 kts 235°
2026-05-06 09:13 46.53660 6.46466 24732 ft 464 kts 235°
2026-05-06 09:13 46.51981 6.42478 25043 ft 462 kts 236°
2026-05-06 09:14 46.50309 6.38508 25315 ft 460 kts 236°
2026-05-06 09:14 46.48637 6.34545 25555 ft 459 kts 236°
2026-05-06 09:14 46.46969 6.30601 25807 ft 458 kts 236°
2026-05-06 09:14 46.45305 6.26669 26078 ft 457 kts 236°
2026-05-06 09:15 46.43644 6.22752 26365 ft 456 kts 235°
2026-05-06 09:15 46.41985 6.18840 26654 ft 455 kts 235°
2026-05-06 09:15 46.40331 6.14940 26982 ft 453 kts 235°
2026-05-06 09:15 46.38686 6.11061 27329 ft 451 kts 235°
2026-05-06 09:16 46.37047 6.07203 27681 ft 448 kts 235°
2026-05-06 09:16 46.35414 6.03375 28006 ft 446 kts 235°
2026-05-06 09:16 46.33783 5.99561 28336 ft 446 kts 235°
2026-05-06 09:16 46.32147 5.95740 28513 ft 448 kts 236°
2026-05-06 09:17 46.30506 5.91903 28760 ft 448 kts 236°
2026-05-06 09:17 46.28868 5.88079 29035 ft 448 kts 235°
2026-05-06 09:17 46.27230 5.84261 29314 ft 447 kts 235°
2026-05-06 09:17 46.25593 5.80452 29584 ft 446 kts 235°
2026-05-06 09:18 46.23978 5.76698 29862 ft 445 kts 235°
2026-05-06 09:18 46.22345 5.72911 30139 ft 444 kts 236°
2026-05-06 09:18 46.20721 5.69152 30495 ft 438 kts 236°
2026-05-06 09:18 46.19116 5.65440 30839 ft 434 kts 236°
2026-05-06 09:19 46.17519 5.61749 31099 ft 432 kts 236°
2026-05-06 09:19 46.15928 5.58076 31338 ft 431 kts 236°
2026-05-06 09:19 46.14330 5.54409 31526 ft 433 kts 235°
2026-05-06 09:19 46.12673 5.50778 31676 ft 434 kts 234°
2026-05-06 09:20 46.10962 5.47190 31896 ft 434 kts 233°
2026-05-06 09:20 46.09225 5.43638 32133 ft 433 kts 232°
2026-05-06 09:20 46.07487 5.40111 32411 ft 431 kts 232°
2026-05-06 09:20 46.05759 5.36583 32707 ft 430 kts 233°
2026-05-06 09:21 46.04043 5.33060 32894 ft 429 kts 233°
2026-05-06 09:21 46.00624 5.25992 32926 ft 431 kts 233°
2026-05-06 09:22 45.97212 5.18908 32935 ft 431 kts 233°
2026-05-06 09:22 45.93789 5.11827 32949 ft 433 kts 233°
2026-05-06 09:23 45.90322 5.04703 32937 ft 436 kts 233°
2026-05-06 09:23 45.86846 4.97578 32931 ft 436 kts 233°
2026-05-06 09:24 45.83372 4.90462 32951 ft 435 kts 233°
2026-05-06 09:24 45.79905 4.83378 32956 ft 434 kts 233°
2026-05-06 09:25 45.76461 4.76366 32951 ft 433 kts 233°
2026-05-06 09:25 45.72993 4.69325 32963 ft 433 kts 233°
2026-05-06 09:26 45.69511 4.62278 32909 ft 434 kts 233°
2026-05-06 09:26 45.66055 4.55297 32904 ft 434 kts 233°